Torna al catalogo

ONEWEB-0126

AttivoComunicazioniPO
NORAD 47272·PAYLOAD·🇬🇧 United Kingdom

Lanciato Dec 18, 2020 da Vostochny Cosmodrome

Loading…

Prossimi Passaggi (prossime 24 ore)

TLE

AggiornatoSource: CelesTrak SupGP

Epoca: Sep 14, 2026, 18:52 UTC

1 47272C 20100Q   26257.78663612 -.00002093  00000+0 -58263-2 0  2574
2 47272  87.8978 332.8813 0001772 101.8257 319.1079 13.12443050    14

Traccia ONEWEB-0126 in tempo reale con AllMySat

Download on the App Store